ATLAS 5 CENTAUR DEB, 44694

Orbit data source: Space-Track

ATLAS 5 CENTAUR DEB, 44694 is space debris in HEO originally from a launch on Wed, 17 Oct 2018 UTC launched from the Air Force Eastern Test Range (AFETR). Debris objects in space refer to the collection of defunct objects orbiting the Earth. Examples of debris include non-operational satellites, rocket bodies, and fragments generated from explosions, collisions, or faulty payload assembly.

Loading next visibility...
Identifier
44694, 2018-079BG
Orbit
HEO
Country
Flag of USUS
Related business
Flag of USUnited Launch Alliance/Lockheed Martin (US)
Manufacturer
ULA Decatur
Mission
Spacecraft
Bus & Motor
Unknown
Mass
Unknown
Launch date (UTC)
2018-10-17 (8 years ago)
Launch vehicle
Unknown
Launch site
Air Force Eastern Test Range (AFETR)
Object type
Payload
Rocket body
Debris
Shape & HBR
Unknown shape, 1.1 m
Radar Cross Section
RCS unknown

Expand to show TLE details & history
Last TLE update: 22 hours ago

TLE from 22 hours ago
0 ATLAS 5 CENTAUR DEB
1 44694U 18079BG  26126.00006454 -.00000086  00000-0  00000-0 0  9993
2 44694  13.5797  42.7346 4732290 292.4742  24.9821  1.77433545 45817
Epoch: 2026-05-06T00:00Z
TLE epoch observation values (Epoch: 2026-05-06T00:00:05.576Z)
Latitude
0.00005°
Longitude
178.76679°
Altitude
12,574.504 km
Speed
5.313 km/s
True Right ascension
02h 50m 37s
True Declination
0° 00' 00"
Sunlit
Object was in daylight at epoch
Visualization orbit readout
Latitude
Unknown
Longitude
Unknown
Altitude
Unknown
Speed
Unknown
Apparent Right ascension
Unknown
Apparent Declination
Unknown
Sunlit
N/A
Visualization observer readout
Local Sidereal Time
05:35:16
Azimuth
Unknown
Elevation
Unknown
Doppler factor
Unknown
Orbital elements
Apogee altitude
36,085.069 km
Perigee altitude
8,805.1 km
Semi-major axis
28,823.221 km
Eccentricity
0.47323
Inclination
13.5797°
RAAN
42.7346°
Arg. of periapsis
292.4742°
True anomaly
67.72004°
Mean anomaly
24.9821°
Eccentric anomaly
43.72235°
Mean motion
0.44354 °/min
Orbital period
811.66 mins
BSTAR
0
Loading maneuver chart data...
Computing Atmospheric mass density...

Documentation

Showing up to 5 results
|